User: anonymous   Login
Location: Caltech
(34.1382°N, 118.1253°W)
Time: 02:28:55
(UTC-07:00)
Language:

FO-29 - Orbit

View from above orbital plane
View from above orbital plane
View from above satellite
View from above satellite

Ground track
Ground track

The orbit data is extracted from the following two-line orbital elements,

1 24278U 96046B   17295.64525325 -.00000030 +00000-0 +63223-5 0  9999
2 24278 098.5412 161.8187 0350616 007.2396 353.3624 13.53080019045863
Epoch (UTC): 22 October 2017 15:29:09
Eccentricity: 0.0350616
inclination: 98.5412°
perigee height: 800 km
apogee height: 1322 km
right ascension of ascending node: 161.8187°
argument of perigee: 7.2396°
revolutions per day: 13.53080019
mean anomaly at epoch: 353.3624°
orbit number at epoch: 4586

The dashed part of the orbit path shows where the satellite is in the earth's shadow,  

DLR